loading
|

OBJECT F, 61232

Orbit data source: Space-Track

OBJECT F, 61232 is a satellite owned by Guoxing (CN) in SSO that was launched on Tue, 24 Sep 2024 UTC via a JIELONG-3 launch vehicle from the Yellow Sea Launch Area, China (YSLA). Unknown objects in Earth's orbit typically refer to objects detected orbiting the Earth but have not yet been identified or cataloged. These objects could be anything from previously untracked satellites, spent rocket stages, debris from satellite collisions, or even natural meteoroids temporarily captured by Earth's gravity.

Loading next visibility...
Next conjunction unknown
Loading greatness...
OBJECT F details
Identifier
61232, 2024-173F
Orbit
SSO
Last TLE update4 hours ago
Origin
Flag of CNGuoxing (CN / PRC)
ManufacturerGUOX/HISTAR
MissionOperational spacecraft
Bus & MotorXSD, Unknown motor
Mass~25 kg wet, ~25 kg dry
Launch date (UTC)
2024-09-24 (3 weeks ago)
Launch vehicle
JIELONG-3
Launch site
Yellow Sea Launch Area, China (YSLA)
Object typeUnknown
Shape & HBRUnknown
Radar Cross SectionMedium (>0.1 m² and <1 m²)

Expand to show TLE details & history

TLE from 4 hours ago
0 OBJECT F
1 61232U 24173F   24288.48844192  .00032317  00000-0  12520-2 0  9993
2 61232  97.4055   1.0879 0012157 204.5511 155.5150 15.26024317  3056
Epoch: 2024-10-14T11:43Z
Definitive object data (Epoch: 2024-10-14T11:43:21.381Z)
Latitude-0.00005°
Longitude161.73396°
Altitude498.409 km
Speed7.611 km/s
True Right ascension00h 04m 21s
True Declination0° 00' 00"
Sunlit
Object was in full shadow at TLE epoch
Predictive object data (real-time)
Latitude-47.65306°
Longitude-26.24817°
Altitude498.56 km
Speed7.618 km/s
Apparent Right ascension17h 41m 32s
Apparent Declination-81° 18' 11"
Sunlit
Object is in daylight
Predictive observer data (real-time)
Local Sidereal Time10:26:13
Azimuth168.861° S
Elevation-42.2°
Doppler factor1
Orbital elements
Apogee493.012 km
Perigee476.326 km
Semi-major axis6,862.806 km
Eccentricity0.0012157
Inclination97.4055°
RAAN1.0879°
Arg. of periapsis204.5511°
True anomaly155.57266°
Mean anomaly155.515°
Eccentric anomaly155.54384°
Mean motion3.8176 °/min
BSTAR0.001252
Period94.3 mins
No data available

OBJECT F Visibility forecast

Observer location: 39.9160978°, -105.1181434

Span
Click to sort rows by Start time (UTC) header in descending order
Start Az.
Max El. time (UTC)
Max El. Az.
Max El.
End time (UTC)
End Az.
4 mins2024-10-14 17:01:56.968Z60.38° ENE2024-10-14 17:03:56.968Z100.723° ESE16.931°2024-10-14 17:05:56.968Z136.437° SSE
4 mins2024-10-14 18:35:56.968Z319.726° NNW2024-10-14 18:36:56.968Z294.392° NW22.48°2024-10-14 18:39:56.968Z234.575° WSW
6 mins2024-10-15 05:09:56.968Z175.427° S2024-10-15 05:12:56.968Z312.644° NW41.563°2024-10-15 05:15:56.968Z343.836° N